Starlink 2188

operational
NORAD ID: 48563 Int'l Des: 2021-041 Owner: SPXS Country: US Constellation: starlink
LEOCIRCULARSTARLINK_TYPE

关于 Starlink 2188

正在加载描述...

实时位置

正在加载3D地球...

即将过境

高度历史

Altitude vs Time

uPlot chart will show altitude changes over time

两行轨道根数

1 48563U 21041L 25305.38589463 .00000212 00000-0 33157-4 0 9993
2 48563 53.0550 347.5932 0001492 87.7827 272.3333 15.06389097245860
Epoch: Nov 1, 2025 • Age: 28 hours

当前状态

高度 547.1 km
速度 7.59 km/s
星下点 16.81°N, 88.22°W
发射日期 May 15, 2021
运行时间 4.4 years
类型 internet

技术详情

分类 Payload
质量 260.00 kg
干质量 248.00 kg
总质量 260.00 kg
长度 0.20 m
直径 2.80 m
跨度 9.00 m
形状 Box + pan
制造商 SPXS
平台类型 Starlink
阶段状态 In Orbit
所有者/国家 SPXS/US

大型星座

Loading constellations...